| time (UTC) | temp F | wind direction | speed MPH | gust MPH | rain 1hr in | rain 24hr in | rain mn in | humidity % | barometer mb |
| 20260504192629 | 59 | 194 | 8.0 | 15.0 | 0.00 | 0.00 | 0.00 | 78 | 1008.3 |
| 20260504192126 | 59 | 203 | 11.0 | 16.0 | 0.00 | 0.00 | 0.00 | 78 | 1008.1 |
| 20260504191625 | 59 | 191 | 5.0 | 20.0 | 0.00 | 0.00 | 0.00 | 78 | 1008.1 |
| 20260504191121 | 59 | 184 | 9.0 | 17.0 | 0.00 | 0.00 | 0.00 | 77 | 1008.3 |
| 20260504190617 | 59 | 210 | 7.0 | 18.0 | 0.00 | 0.00 | 0.00 | 79 | 1008.3 |
| 20260504190114 | 59 | 206 | 5.0 | 27.0 | 0.00 | 0.00 | 0.00 | 79 | 1008.4 |
| 20260504185610 | 59 | 199 | 7.0 | 17.0 | 0.00 | 0.00 | 0.00 | 77 | 1008.4 |
| 20260504185107 | 60 | 186 | 6.0 | 15.0 | 0.00 | 0.00 | 0.00 | 76 | 1008.5 |
| 20260504184602 | 59 | 188 | 22.0 | 22.0 | 0.00 | 0.00 | 0.00 | 76 | 1008.3 |
| 20260504184058 | 59 | 207 | 8.0 | 24.0 | 0.00 | 0.00 | 0.00 | 76 | 1008.4 |
| 20260504183555 | 60 | 180 | 6.0 | 22.0 | 0.00 | 0.00 | 0.00 | 76 | 1008.9 |
| 20260504183053 | 60 | 196 | 14.0 | 21.0 | 0.00 | 0.00 | 0.00 | 75 | 1008.6 |
| 20260504182550 | 60 | 180 | 6.0 | 18.0 | 0.00 | 0.00 | 0.00 | 77 | 1008.7 |
| 20260504182047 | 59 | 205 | 7.0 | 25.0 | 0.00 | 0.00 | 0.00 | 76 | 1008.6 |
| 20260504181544 | 59 | 207 | 9.0 | 21.0 | 0.00 | 0.00 | 0.00 | 76 | 1008.7 |
| 20260504181042 | 59 | 182 | 8.0 | 16.0 | 0.00 | 0.00 | 0.00 | 76 | 1008.9 |
| 20260504180541 | 59 | 193 | 15.0 | 18.0 | 0.00 | 0.00 | 0.00 | 76 | 1009.0 |
| 20260504180039 | 59 | 185 | 5.0 | 26.0 | 0.00 | 0.00 | 0.00 | 77 | 1008.8 |
| 20260504175536 | 59 | 189 | 5.0 | 14.0 | 0.00 | 0.00 | 0.00 | 77 | 1008.9 |
| 20260504175033 | 59 | 195 | 6.0 | 17.0 | 0.00 | 0.00 | 0.00 | 78 | 1009.0 |
| 20260504174531 | 59 | 183 | 15.0 | 24.0 | 0.00 | 0.00 | 0.00 | 78 | 1009.2 |
| 20260504174028 | 59 | 210 | 14.0 | 17.0 | 0.00 | 0.00 | 0.00 | 76 | 1009.1 |
| 20260504173525 | 59 | 201 | 8.0 | 19.0 | 0.00 | 0.00 | 0.00 | 78 | 1009.0 |
| 20260504173022 | 59 | 204 | 12.0 | 19.0 | 0.00 | 0.00 | 0.00 | 77 | 1008.9 |
| 20260504172518 | 59 | 194 | 2.0 | 21.0 | 0.00 | 0.00 | 0.00 | 79 | 1009.2 |
| 20260504172015 | 59 | 190 | 10.0 | 15.0 | 0.00 | 0.00 | 0.00 | 79 | 1009.2 |
| 20260504171512 | 59 | 196 | 11.0 | 16.0 | 0.00 | 0.00 | 0.00 | 80 | 1009.2 |
| 20260504171008 | 58 | 203 | 8.0 | 17.0 | 0.00 | 0.00 | 0.00 | 80 | 1009.4 |
| 20260504170504 | 58 | 192 | 5.0 | 20.0 | 0.00 | 0.00 | 0.00 | 80 | 1009.5 |
| 20260504160425 | 59 | 207 | 9.0 | 14.0 | 0.00 | 0.00 | 0.00 | 77 | 1010.1 |
| 20260504150848 | 59 | 200 | 7.0 | 13.0 | 0.00 | 0.00 | 0.00 | 67 | 1010.6 |
| 20260504150345 | 60 | 175 | 7.0 | 13.0 | 0.00 | 0.00 | 0.00 | 68 | 1010.5 |
| 20260504141315 | 58 | 171 | 7.0 | 17.0 | 0.00 | 0.00 | 0.00 | 67 | 1010.8 |
| 20260504140812 | 59 | 224 | 8.0 | 13.0 | 0.00 | 0.00 | 0.00 | 66 | 1010.8 |
| 20260504140307 | 58 | 198 | 6.0 | 12.0 | 0.00 | 0.00 | 0.00 | 67 | 1010.7 |
| 20260504130736 | 56 | 213 | 9.0 | 13.0 | 0.00 | 0.00 | 0.00 | 68 | 1011.4 |
| 20260504130232 | 56 | 202 | 5.0 | 16.0 | 0.00 | 0.00 | 0.00 | 68 | 1011.1 |
| 20260504120156 | 54 | 209 | 4.0 | 11.0 | 0.00 | 0.00 | 0.00 | 73 | 1011.6 |
| 20260504110623 | 52 | 194 | 5.0 | 14.0 | 0.00 | 0.00 | 0.00 | 72 | 1011.5 |
| 20260504110119 | 51 | 224 | 7.0 | 11.0 | 0.00 | 0.00 | 0.00 | 72 | 1011.5 |
| 20260504100545 | 49 | 155 | 2.0 | 7.0 | 0.00 | 0.00 | 0.00 | 79 | 1011.2 |
| 20260504081938 | 50 | 225 | 0.0 | 7.0 | 0.00 | 0.00 | 0.00 | 65 | 1010.7 |
| 20260504081435 | 50 | 206 | 3.0 | 6.0 | 0.00 | 0.00 | 0.00 | 66 | 1010.5 |
| 20260504080931 | 50 | 226 | 7.0 | 10.0 | 0.00 | 0.00 | 0.00 | 68 | 1010.7 |
| 20260504080428 | 50 | 238 | 0.0 | 14.0 | 0.00 | 0.00 | 0.00 | 68 | 1010.4 |
| 20260504070356 | 51 | 218 | 4.0 | 11.0 | 0.00 | 0.00 | 0.00 | 63 | 1010.3 |
| 20260504050743 | 51 | 261 | 2.0 | 10.0 | 0.00 | 0.00 | 0.00 | 71 | 1009.8 |
| 20260504050241 | 51 | 217 | 3.0 | 8.0 | 0.00 | 0.00 | 0.00 | 71 | 1009.7 |
| 20260504045738 | 51 | 225 | 4.0 | 9.0 | 0.00 | 0.00 | 0.00 | 70 | 1009.7 |
| 20260504045232 | 51 | 220 | 4.0 | 9.0 | 0.00 | 0.00 | 0.00 | 70 | 1009.6 |
| 20260504044731 | 51 | 217 | 4.0 | 10.0 | 0.00 | 0.00 | 0.00 | 72 | 1009.6 |
| 20260504044228 | 50 | 232 | 4.0 | 9.0 | 0.00 | 0.00 | 0.00 | 74 | 1009.7 |
| 20260504043725 | 50 | 214 | 5.0 | 8.0 | 0.00 | 0.00 | 0.00 | 74 | 1009.8 |
| 20260504043222 | 51 | 214 | 4.0 | 6.0 | 0.00 | 0.00 | 0.00 | 72 | 1009.7 |
| 20260504042719 | 51 | 202 | 2.0 | 5.0 | 0.00 | 0.00 | 0.00 | 69 | 1009.8 |
| 20260504042216 | 51 | 209 | 3.0 | 7.0 | 0.00 | 0.00 | 0.00 | 66 | 1009.6 |
| 20260504041712 | 51 | 198 | 3.0 | 6.0 | 0.00 | 0.00 | 0.00 | 66 | 1009.8 |
| 20260504041207 | 52 | 199 | 1.0 | 6.0 | 0.00 | 0.00 | 0.00 | 66 | 1009.7 |
| 20260504040704 | 52 | 223 | 4.0 | 9.0 | 0.00 | 0.00 | 0.00 | 66 | 1009.5 |
| 20260504040202 | 52 | 218 | 4.0 | 6.0 | 0.00 | 0.00 | 0.00 | 65 | 1009.3 |
| 20260504035658 | 52 | 209 | 3.0 | 9.0 | 0.00 | 0.00 | 0.00 | 64 | 1009.5 |
| 20260504035155 | 52 | 212 | 5.0 | 10.0 | 0.00 | 0.00 | 0.00 | 65 | 1009.5 |
| 20260504034652 | 52 | 217 | 2.0 | 7.0 | 0.00 | 0.00 | 0.00 | 66 | 1009.5 |
| 20260504034149 | 52 | 218 | 3.0 | 10.0 | 0.00 | 0.00 | 0.00 | 67 | 1009.4 |
| 20260504033647 | 51 | 216 | 2.0 | 8.0 | 0.00 | 0.00 | 0.00 | 72 | 1009.4 |
| 20260504033144 | 51 | 215 | 3.0 | 7.0 | 0.00 | 0.00 | 0.00 | 74 | 1009.3 |
| 20260504032641 | 52 | 207 | 4.0 | 5.0 | 0.00 | 0.00 | 0.00 | 72 | 1009.3 |
| 20260504032138 | 52 | 201 | 2.0 | 7.0 | 0.00 | 0.00 | 0.00 | 64 | 1009.4 |
| 20260504031635 | 53 | 249 | 4.0 | 8.0 | 0.00 | 0.00 | 0.00 | 61 | 1009.2 |
| 20260504031131 | 53 | 170 | 3.0 | 5.0 | 0.00 | 0.00 | 0.00 | 60 | 1009.4 |
| 20260504030628 | 53 | 237 | 5.0 | 7.0 | 0.00 | 0.00 | 0.00 | 59 | 1009.3 |
| 20260504030125 | 53 | 223 | 4.0 | 8.0 | 0.00 | 0.00 | 0.00 | 60 | 1009.4 |
| 20260504025622 | 53 | 201 | 2.0 | 10.0 | 0.00 | 0.00 | 0.00 | 62 | 1009.3 |
| 20260504025119 | 52 | 236 | 4.0 | 5.0 | 0.00 | 0.00 | 0.00 | 64 | 1009.4 |
| 20260504024616 | 53 | 222 | 3.0 | 11.0 | 0.00 | 0.00 | 0.00 | 63 | 1009.3 |
| 20260504024112 | 53 | 226 | 2.0 | 9.0 | 0.00 | 0.00 | 0.00 | 65 | 1009.3 |
| 20260504023609 | 52 | 213 | 3.0 | 4.0 | 0.00 | 0.00 | 0.00 | 66 | 1009.1 |
| 20260504023105 | 53 | 225 | 2.0 | 5.0 | 0.00 | 0.00 | 0.00 | 62 | 1009.5 |
| 20260504022601 | 53 | 228 | 4.0 | 6.0 | 0.00 | 0.00 | 0.00 | 60 | 1009.3 |
| 20260504022057 | 53 | 261 | 4.0 | 7.0 | 0.00 | 0.00 | 0.00 | 60 | 1009.3 |
| 20260504021555 | 53 | 205 | 2.0 | 5.0 | 0.00 | 0.00 | 0.00 | 61 | 1009.3 |
| 20260504021052 | 53 | 226 | 2.0 | 7.0 | 0.00 | 0.00 | 0.00 | 61 | 1009.3 |
| 20260504020549 | 52 | 213 | 3.0 | 3.0 | 0.00 | 0.00 | 0.00 | 61 | 1009.2 |
| 20260504020045 | 53 | 206 | 2.0 | 5.0 | 0.00 | 0.00 | 0.00 | 58 | 1009.4 |
| 20260504015542 | 52 | 243 | 3.0 | 4.0 | 0.00 | 0.00 | 0.00 | 58 | 1009.4 |
| 20260504015037 | 52 | 186 | 1.0 | 4.0 | 0.00 | 0.00 | 0.00 | 59 | 1009.3 |
| 20260504014535 | 52 | 237 | 0.0 | 2.0 | 0.00 | 0.00 | 0.00 | 62 | 1009.2 |
| 20260504014032 | 52 | 179 | 1.0 | 3.0 | 0.00 | 0.00 | 0.00 | 61 | 1009.0 |
| 20260504013530 | 52 | 185 | 1.0 | 3.0 | 0.00 | 0.00 | 0.00 | 58 | 1008.9 |
| 20260504013026 | 53 | 191 | 1.0 | 2.0 | 0.00 | 0.00 | 0.00 | 57 | 1009.0 |
| 20260504012523 | 53 | 185 | 1.0 | 3.0 | 0.00 | 0.00 | 0.00 | 55 | 1008.8 |
| 20260504012021 | 53 | 189 | 1.0 | 3.0 | 0.00 | 0.00 | 0.00 | 56 | 1009.1 |
| 20260504011517 | 53 | 208 | 2.0 | 3.0 | 0.00 | 0.00 | 0.00 | 54 | 1009.1 |
| 20260504011013 | 53 | 172 | 2.0 | 5.0 | 0.00 | 0.00 | 0.00 | 49 | 1009.1 |
| 20260504010509 | 52 | 126 | 2.0 | 3.0 | 0.00 | 0.00 | 0.00 | 44 | 1008.7 |
| 20260504010005 | 53 | 89 | 0.0 | 1.0 | 0.00 | 0.00 | 0.00 | 44 | 1008.7 |
| 20260504005502 | 53 | 140 | 0.0 | 2.0 | 0.00 | 0.00 | 0.00 | 42 | 1008.6 |
| 20260504005000 | 53 | 138 | 1.0 | 2.0 | 0.00 | 0.00 | 0.00 | 41 | 1008.6 |
| 20260504004457 | 54 | 186 | 0.0 | 2.0 | 0.00 | 0.00 | 0.00 | 40 | 1008.5 |
| 20260504003954 | 54 | 150 | 0.0 | 2.0 | 0.00 | 0.00 | 0.00 | 38 | 1008.5 |
| 20260504003450 | 55 | 163 | 1.0 | 2.0 | 0.00 | 0.00 | 0.00 | 38 | 1008.4 |
| 20260504002947 | 55 | 152 | 0.0 | 2.0 | 0.00 | 0.00 | 0.00 | 38 | 1008.5 |
| 20260504002444 | 55 | 203 | 1.0 | 2.0 | 0.00 | 0.00 | 0.00 | 37 | 1008.2 |
| 20260504001942 | 56 | 209 | 2.0 | 3.0 | 0.00 | 0.00 | 0.00 | 35 | 1008.2 |
| 20260504001439 | 56 | 229 | 0.0 | 2.0 | 0.00 | 0.00 | 0.00 | 35 | 1008.1 |
| 20260504000936 | 57 | 271 | 3.0 | 5.0 | 0.00 | 0.00 | 0.00 | 34 | 1008.1 |
| 20260504000433 | 57 | 212 | 1.0 | 6.0 | 0.00 | 0.00 | 0.00 | 34 | 1007.9 |
| 20260503235930 | 57 | 255 | 2.0 | 5.0 | 0.00 | 0.00 | 0.00 | 35 | 1007.9 |
| 20260503235428 | 57 | 321 | 3.0 | 4.0 | 0.00 | 0.00 | 0.00 | 33 | 1007.7 |
| 20260503234925 | 57 | 230 | 3.0 | 8.0 | 0.00 | 0.00 | 0.00 | 33 | 1007.8 |
| 20260503234422 | 58 | 248 | 5.0 | 12.0 | 0.00 | 0.00 | 0.00 | 32 | 1007.8 |
| 20260503233920 | 58 | 231 | 3.0 | 8.0 | 0.00 | 0.00 | 0.00 | 31 | 1007.8 |
| 20260503233416 | 58 | 237 | 2.0 | 7.0 | 0.00 | 0.00 | 0.00 | 32 | 1007.8 |
| 20260503232913 | 58 | 239 | 1.0 | 8.0 | 0.00 | 0.00 | 0.00 | 31 | 1007.8 |
| 20260503232410 | 59 | 221 | 7.0 | 11.0 | 0.00 | 0.00 | 0.00 | 31 | 1007.6 |
| 20260503231908 | 59 | 233 | 8.0 | 10.0 | 0.00 | 0.00 | 0.00 | 31 | 1007.6 |
| 20260503231405 | 59 | 274 | 5.0 | 9.0 | 0.00 | 0.00 | 0.00 | 30 | 1007.6 |
| 20260503230901 | 59 | 188 | 5.0 | 10.0 | 0.00 | 0.00 | 0.00 | 29 | 1007.4 |
| 20260503230358 | 59 | 283 | 5.0 | 16.0 | 0.00 | 0.00 | 0.00 | 30 | 1007.6 |
| 20260503225855 | 59 | 225 | 5.0 | 19.0 | 0.00 | 0.00 | 0.00 | 30 | 1007.4 |
| 20260503225351 | 60 | 292 | 4.0 | 15.0 | 0.00 | 0.00 | 0.00 | 29 | 1007.6 |
| 20260503224848 | 60 | 283 | 4.0 | 14.0 | 0.00 | 0.00 | 0.00 | 30 | 1007.4 |
| 20260503224345 | 60 | 292 | 5.0 | 26.0 | 0.00 | 0.00 | 0.00 | 29 | 1007.5 |
| 20260503223843 | 60 | 226 | 4.0 | 14.0 | 0.00 | 0.00 | 0.00 | 30 | 1007.2 |
| 20260503223340 | 60 | 254 | 5.0 | 19.0 | 0.00 | 0.00 | 0.00 | 30 | 1007.4 |
| 20260503222836 | 60 | 245 | 6.0 | 15.0 | 0.00 | 0.00 | 0.00 | 30 | 1007.3 |
| 20260503222335 | 60 | 225 | 5.0 | 14.0 | 0.00 | 0.00 | 0.00 | 29 | 1007.2 |
| 20260503221832 | 61 | 231 | 5.0 | 13.0 | 0.00 | 0.00 | 0.00 | 29 | 1007.4 |
| 20260503221331 | 60 | 177 | 3.0 | 14.0 | 0.00 | 0.00 | 0.00 | 31 | 1007.3 |
| 20260503220827 | 60 | 335 | 4.0 | 15.0 | 0.00 | 0.00 | 0.00 | 29 | 1007.1 |
| 20260503220324 | 60 | 211 | 5.0 | 14.0 | 0.00 | 0.00 | 0.00 | 30 | 1007.3 |
| 20260503215820 | 60 | 257 | 3.0 | 19.0 | 0.00 | 0.00 | 0.00 | 32 | 1007.3 |
| 20260503215317 | 60 | 200 | 4.0 | 26.0 | 0.00 | 0.00 | 0.00 | 29 | 1007.4 |
| 20260503214816 | 60 | 306 | 6.0 | 20.0 | 0.00 | 0.00 | 0.00 | 31 | 1007.3 |
| 20260503214312 | 60 | 246 | 7.0 | 20.0 | 0.00 | 0.00 | 0.00 | 31 | 1007.3 |
| 20260503213810 | 60 | 285 | 4.0 | 20.0 | 0.00 | 0.00 | 0.00 | 31 | 1007.2 |
| 20260503213307 | 59 | 296 | 10.0 | 19.0 | 0.00 | 0.00 | 0.00 | 30 | 1007.1 |
| 20260503212804 | 60 | 334 | 4.0 | 20.0 | 0.00 | 0.00 | 0.00 | 30 | 1007.1 |
| 20260503212301 | 60 | 287 | 3.0 | 14.0 | 0.00 | 0.00 | 0.00 | 31 | 1007.1 |
| 20260503211759 | 60 | 278 | 7.0 | 18.0 | 0.00 | 0.00 | 0.00 | 30 | 1007.2 |
| 20260503211255 | 60 | 148 | 11.0 | 18.0 | 0.00 | 0.00 | 0.00 | 32 | 1007.1 |
| 20260503210755 | 60 | 32 | 6.0 | 19.0 | 0.00 | 0.00 | 0.00 | 31 | 1006.9 |
| 20260503210253 | 60 | 285 | 6.0 | 22.0 | 0.00 | 0.00 | 0.00 | 32 | 1007.0 |
| 20260503205748 | 59 | 336 | 9.0 | 18.0 | 0.00 | 0.00 | 0.00 | 31 | 1006.9 |
| 20260503205245 | 59 | 256 | 4.0 | 17.0 | 0.00 | 0.00 | 0.00 | 31 | 1007.0 |
| 20260503204741 | 59 | 357 | 9.0 | 13.0 | 0.00 | 0.00 | 0.00 | 32 | 1007.1 |
| 20260503204239 | 59 | 253 | 0.0 | 24.0 | 0.00 | 0.00 | 0.00 | 34 | 1007.1 |
| 20260503203736 | 59 | 299 | 8.0 | 19.0 | 0.00 | 0.00 | 0.00 | 32 | 1007.1 |
| 20260503203233 | 59 | 286 | 8.0 | 18.0 | 0.00 | 0.00 | 0.00 | 34 | 1006.9 |
| 20260503202730 | 59 | 254 | 16.0 | 22.0 | 0.00 | 0.00 | 0.00 | 32 | 1007.0 |
| 20260503202228 | 59 | 246 | 12.0 | 23.0 | 0.00 | 0.00 | 0.00 | 33 | 1007.0 |
| 20260503201726 | 59 | 272 | 8.0 | 13.0 | 0.00 | 0.00 | 0.00 | 34 | 1006.9 |
| 20260503201223 | 60 | 255 | 5.0 | 10.0 | 0.00 | 0.00 | 0.00 | 32 | 1007.1 |
| 20260503200719 | 59 | 259 | 4.0 | 12.0 | 0.00 | 0.00 | 0.00 | 35 | 1007.2 |
| 20260503200216 | 59 | 245 | 9.0 | 25.0 | 0.00 | 0.00 | 0.00 | 34 | 1007.2 |
| 20260503195713 | 58 | 355 | 4.0 | 22.0 | 0.00 | 0.00 | 0.00 | 34 | 1007.0 |
| 20260503195210 | 59 | 208 | 5.0 | 15.0 | 0.00 | 0.00 | 0.00 | 35 | 1007.3 |
| 20260503194707 | 59 | 296 | 18.0 | 18.0 | 0.00 | 0.00 | 0.00 | 35 | 1007.2 |
| 20260503194202 | 58 | 246 | 8.0 | 24.0 | 0.00 | 0.00 | 0.00 | 35 | 1007.4 |
| 20260503193659 | 58 | 244 | 5.0 | 15.0 | 0.00 | 0.00 | 0.00 | 39 | 1007.3 |
| 20260503193155 | 58 | 279 | 3.0 | 16.0 | 0.00 | 0.00 | 0.00 | 38 | 1007.2 |